• In Germany
  • List of Countries
  • For 7 days
  • Water Temperature
  • Satellite Maps
  • Weather Map
  • Weather Widgets
  • user-avatar
    Login

    Hourly Weather Sabha

    Today, 26 September, Tuesday

    Time Temperature Precipitation Wind Pressure Humidity
    00:00 +29°C° 0 mm 7 mps 724 mmHg 34%
    01:00 +29°C° 0 mm 7 mps 724 mmHg 37%
    02:00 +28°C° 0 mm 7 mps 724 mmHg 38%
    03:00 +28°C° 0 mm 7 mps 724 mmHg 40%
    04:00 +27°C° 0 mm 7 mps 724 mmHg 42%
    05:00 +27°C° 0 mm 7 mps 724 mmHg 42%
    06:00 +27°C° 0 mm 7 mps 724 mmHg 42%
    07:00 +26°C° 0 mm 7 mps 724 mmHg 42%
    08:00 +28°C° 0 mm 7 mps 724 mmHg 36%
    09:00 +31°C° 0 mm 8 mps 725 mmHg 31%
    10:00 +33°C° 0 mm 8 mps 725 mmHg 25%
    11:00 +35°C° 0 mm 7 mps 724 mmHg 22%
    12:00 +36°C° 0 mm 6 mps 724 mmHg 20%
    13:00 +37°C° 0 mm 5 mps 724 mmHg 17%
    14:00 +39°C° 0 mm 5 mps 723 mmHg 16%
    15:00 +38°C° 0 mm 4 mps 723 mmHg 14%
    16:00 +39°C° 0 mm 3 mps 722 mmHg 13%
    17:00 +37°C° 0 mm 4 mps 722 mmHg 14%
    18:00 +36°C° 0 mm 4 mps 722 mmHg 15%
    19:00 +35°C° 0 mm 5 mps 722 mmHg 16%
    20:00 +34°C° 0 mm 5 mps 723 mmHg 18%
    21:00 +33°C° 0 mm 5 mps 723 mmHg 20%
    22:00 +32°C° 0 mm 6 mps 723 mmHg 22%
    23:00 +30°C° 0 mm 6 mps 723 mmHg 23%

    Tomorrow, 27 September, Wednesday

    Time Temperature Precipitation Wind Pressure Humidity
    00:00 +30°C° 0 mm 6 mps 723 mmHg 24%
    01:00 +29°C° 0 mm 6 mps 723 mmHg 25%
    02:00 +29°C° 0 mm 6 mps 723 mmHg 27%
    03:00 +28°C° 0 mm 6 mps 723 mmHg 28%
    04:00 +28°C° 0 mm 7 mps 723 mmHg 29%
    05:00 +28°C° 0 mm 7 mps 724 mmHg 30%
    06:00 +28°C° 0 mm 8 mps 724 mmHg 31%
    07:00 +28°C° 0 mm 8 mps 724 mmHg 32%
    08:00 +31°C° 0 mm 8 mps 725 mmHg 27%
    09:00 +33°C° 0 mm 9 mps 725 mmHg 23%
    10:00 +35°C° 0 mm 9 mps 726 mmHg 19%
    11:00 +38°C° 0 mm 8 mps 725 mmHg 16%
    12:00 +39°C° 0 mm 8 mps 725 mmHg 13%
    13:00 +41°C° 0 mm 7 mps 724 mmHg 10%
    14:00 +41°C° 0 mm 6 mps 724 mmHg 10%
    15:00 +41°C° 0 mm 6 mps 723 mmHg 9%
    16:00 +41°C° 0 mm 5 mps 722 mmHg 9%
    17:00 +38°C° 0 mm 4 mps 722 mmHg 10%
    18:00 +36°C° 0 mm 3 mps 722 mmHg 12%
    19:00 +34°C° 0 mm 2 mps 722 mmHg 13%
    20:00 +34°C° 0 mm 2 mps 723 mmHg 15%
    21:00 +32°C° 0 mm 2 mps 723 mmHg 16%
    22:00 +31°C° 0 mm 2 mps 724 mmHg 17%
    23:00 +31°C° 0 mm 3 mps 723 mmHg 18%

    Day after tomorrow, 28 September, Thursday

    Time Temperature Precipitation Wind Pressure Humidity
    00:00 +30°C° 0 mm 3 mps 723 mmHg 19%
    01:00 +30°C° 0 mm 3 mps 723 mmHg 20%
    02:00 +29°C° 0 mm 3 mps 723 mmHg 21%
    03:00 +28°C° 0 mm 3 mps 723 mmHg 22%
    04:00 +28°C° 0 mm 3 mps 723 mmHg 23%
    05:00 +28°C° 0 mm 3 mps 723 mmHg 23%
    06:00 +28°C° 0 mm 3 mps 723 mmHg 23%
    07:00 +28°C° 0 mm 4 mps 724 mmHg 23%
    08:00 +32°C° 0 mm 4 mps 724 mmHg 19%
    09:00 +34°C° 0 mm 4 mps 724 mmHg 16%
    10:00 +37°C° 0 mm 5 mps 725 mmHg 12%
    11:00 +39°C° 0 mm 5 mps 724 mmHg 12%
    12:00 +40°C° 0 mm 5 mps 724 mmHg 11%
    13:00 +41°C° 0 mm 5 mps 723 mmHg 10%
    14:00 +41°C° 0 mm 6 mps 723 mmHg 10%
    15:00 +41°C° 0 mm 6 mps 722 mmHg 10%
    16:00 +41°C° 0 mm 6 mps 722 mmHg 10%
    17:00 +39°C° 0 mm 5 mps 722 mmHg 11%
    18:00 +36°C° 0 mm 5 mps 722 mmHg 12%
    19:00 +34°C° 0 mm 4 mps 722 mmHg 13%
    20:00 +34°C° 0 mm 4 mps 723 mmHg 15%
    21:00 +33°C° 0 mm 5 mps 723 mmHg 17%
    22:00 +32°C° 0 mm 5 mps 724 mmHg 20%
    23:00 +30°C° 0 mm 6 mps 723 mmHg 23%

    29 September, Friday

    Time Temperature Precipitation Wind Pressure Humidity
    00:00 +29°C° 0 mm 6 mps 723 mmHg 26%
    01:00 +28°C° 0 mm 7 mps 723 mmHg 30%
    02:00 +27°C° 0 mm 7 mps 723 mmHg 32%
    03:00 +27°C° 0 mm 7 mps 723 mmHg 35%
    04:00 +26°C° 0 mm 7 mps 722 mmHg 38%
    05:00 +26°C° 0 mm 7 mps 723 mmHg 38%
    06:00 +26°C° 0 mm 7 mps 723 mmHg 38%
    07:00 +24°C° 0 mm 7 mps 723 mmHg 39%
    08:00 +27°C° 0 mm 7 mps 724 mmHg 35%
    09:00 +29°C° 0 mm 7 mps 724 mmHg 31%
    10:00 +32°C° 0 mm 7 mps 724 mmHg 27%
    11:00 +33°C° 0 mm 6 mps 724 mmHg 25%
    12:00 +34°C° 0 mm 5 mps 723 mmHg 22%
    13:00 +36°C° 0 mm 5 mps 723 mmHg 19%
    14:00 +36°C° 0 mm 5 mps 723 mmHg 18%
    15:00 +36°C° 0 mm 5 mps 722 mmHg 17%
    16:00 +36°C° 0 mm 5 mps 722 mmHg 16%
    17:00 +35°C° 0 mm 5 mps 722 mmHg 18%
    18:00 +34°C° 0 mm 5 mps 723 mmHg 21%
    19:00 +32°C° 0 mm 4 mps 723 mmHg 23%
    20:00 +32°C° 0 mm 5 mps 723 mmHg 25%
    21:00 +30°C° 0 mm 5 mps 723 mmHg 26%
    22:00 +30°C° 0 mm 5 mps 724 mmHg 28%
    23:00 +29°C° 0 mm 5 mps 723 mmHg 29%

    30 September, Saturday

    Time Temperature Precipitation Wind Pressure Humidity
    00:00 +29°C° 0 mm 5 mps 723 mmHg 31%
    01:00 +28°C° 0 mm 6 mps 723 mmHg 32%
    02:00 +28°C° 0 mm 6 mps 723 mmHg 34%
    03:00 +27°C° 0 mm 7 mps 722 mmHg 37%
    04:00 +27°C° 0 mm 7 mps 722 mmHg 39%
    05:00 +27°C° 0.1 mm 6 mps 722 mmHg 40%
    06:00 +27°C° 0.1 mm 6 mps 723 mmHg 41%
    07:00 +27°C° 0.1 mm 5 mps 723 mmHg 43%
    08:00 +28°C° 0 mm 6 mps 723 mmHg 37%
    09:00 +30°C° 0 mm 6 mps 724 mmHg 32%
    10:00 +33°C° 0 mm 6 mps 724 mmHg 27%
    11:00 +34°C° 0 mm 5 mps 723 mmHg 24%
    12:00 +35°C° 0 mm 5 mps 723 mmHg 22%
    13:00 +36°C° 0 mm 4 mps 722 mmHg 19%
    14:00 +36°C° 0 mm 3 mps 722 mmHg 18%
    15:00 +37°C° 0 mm 3 mps 722 mmHg 17%
    16:00 +37°C° 0 mm 3 mps 722 mmHg 17%
    17:00 +36°C° 0.1 mm 3 mps 722 mmHg 18%
    18:00 +34°C° 0.1 mm 3 mps 722 mmHg 20%
    19:00 +33°C° 0.1 mm 3 mps 722 mmHg 21%
    20:00 +32°C° 0 mm 4 mps 722 mmHg 24%
    21:00 +32°C° 0 mm 5 mps 723 mmHg 26%
    22:00 +30°C° 0 mm 5 mps 723 mmHg 28%
    23:00 +29°C° 0 mm 6 mps 722 mmHg 30%

    1 October, Sunday

    Time Temperature Precipitation Wind Pressure Humidity
    00:00 +29°C° 0 mm 7 mps 722 mmHg 33%
    01:00 +28°C° 0 mm 7 mps 722 mmHg 36%
    02:00 +28°C° 0.1 mm 7 mps 722 mmHg 37%
    03:00 +27°C° 0.1 mm 6 mps 722 mmHg 39%
    04:00 +27°C° 0.1 mm 6 mps 722 mmHg 40%
    05:00 +27°C° 0.1 mm 6 mps 723 mmHg 41%
    06:00 +26°C° 0.1 mm 5 mps 723 mmHg 42%
    07:00 +26°C° 0.1 mm 5 mps 724 mmHg 43%
    08:00 +28°C° 0.2 mm 6 mps 724 mmHg 39%
    09:00 +29°C° 0.2 mm 6 mps 724 mmHg 35%
    10:00 +32°C° 0.2 mm 7 mps 724 mmHg 31%
    11:00 +33°C° 0.1 mm 6 mps 724 mmHg 28%
    12:00 +34°C° 0.1 mm 6 mps 723 mmHg 25%
    13:00 +36°C° 0.1 mm 6 mps 723 mmHg 22%
    14:00 +36°C° 0 mm 5 mps 723 mmHg 22%
    15:00 +36°C° 0 mm 5 mps 722 mmHg 21%
    16:00 +36°C° 0 mm 5 mps 722 mmHg 21%
    17:00 +35°C° 0 mm 5 mps 722 mmHg 22%
    18:00 +34°C° 0 mm 5 mps 722 mmHg 24%
    19:00 +34°C° 0 mm 5 mps 723 mmHg 25%
    20:00 +33°C° 0 mm 6 mps 723 mmHg 26%
    21:00 +32°C° 0 mm 7 mps 723 mmHg 28%
    22:00 +32°C° 0 mm 8 mps 723 mmHg 29%
    23:00 +31°C° 0 mm 8 mps 723 mmHg 31%
    Show more